Location: Opava
(49.9500°N, 17.9170°E)
Time: 17:12:43
(UTC+02:00)

ISS - Visible Passes

Search period start: 13 July 2025 00:00
Search period end: 23 July 2025 00:00
Orbit: 413 x 417 km, 51.6° (Epoch: 13 July)

Date Brightness Start Highest point End Pass type
(mag) Time Alt. Az. Time Alt. Az. Time Alt. Az.
13 Jul -3.7 00:25:11 10° WNW 00:28:33 80° NNE 00:30:33 22° E visible
13 Jul -2.0 02:02:04 10° W 02:03:20 19° W 02:03:20 19° W visible
13 Jul -3.6 21:59:25 10° W 22:02:46 75° NNW 22:06:07 10° ENE visible
13 Jul -3.5 23:36:18 10° WNW 23:39:39 69° N 23:42:31 13° E visible
14 Jul -2.8 01:13:05 10° WNW 01:15:20 34° WSW 01:15:20 34° WSW visible
14 Jul -3.3 22:47:24 10° W 22:50:43 63° N 22:54:03 10° E visible
15 Jul -3.9 00:24:10 10° WNW 00:27:30 65° SSW 00:27:34 65° SSW visible
15 Jul -3.3 21:58:26 10° W 22:01:46 63° N 22:05:06 10° E visible
15 Jul -3.9 23:35:15 10° WNW 23:38:37 86° SSW 23:39:55 34° ESE visible
16 Jul -1.3 01:12:17 10° W 01:12:44 13° W 01:12:44 13° W visible
16 Jul -3.7 22:46:20 10° WNW 22:49:41 77° NNE 22:52:22 15° E visible
17 Jul -2.4 00:23:10 10° W 00:25:11 27° WSW 00:25:11 27° WSW visible
17 Jul -3.4 21:57:22 10° WNW 22:00:42 67° N 22:04:02 10° E visible
17 Jul -3.6 23:34:08 10° WNW 23:37:24 50° SSW 23:37:41 48° S visible
18 Jul -3.8 22:45:09 10° WNW 22:48:30 70° SSW 22:50:12 26° ESE visible
19 Jul -1.3 00:22:29 10° W 00:23:02 12° WSW 00:23:02 12° WSW visible
19 Jul -3.8 21:56:10 10° WNW 21:59:32 90° ENE 22:02:45 11° ESE visible
19 Jul -2.4 23:33:08 10° W 23:35:35 25° SW 23:35:35 25° SW visible
20 Jul -3.0 22:43:59 10° W 22:47:06 37° SSW 22:48:10 28° S visible
21 Jul -3.5 21:54:54 10° WNW 21:58:10 54° SSW 22:00:46 15° SE visible
21 Jul -1.3 23:32:50 10° WSW 23:33:37 12° WSW 23:33:37 12° WSW visible
22 Jul -2.0 22:43:04 10° W 22:45:29 19° SW 22:46:15 18° SSW visible
